N752OC KCPU-43NV

Flight info

Callsign N752OC
Flight time 0h 43m
Altitude 11000
Route OVRRR
Aircraft C172/L-VGDW/C

Departure

Time 2026-05-07 03:27
Airport Calaveras Co Maury Rasmussen Field (KCPU)

Arrival

Time 2026-05-07 04:10
Airport Topaz Ranch Airport (43NV)
Time Latitude Longitude Altitude Speed Heading
2026-05-07 03:14 38.14628 -120.64706 1313 ft 0 kts 237°
2026-05-07 03:20 38.14627 -120.64712 1313 ft 3 kts 257°
2026-05-07 03:21 38.14644 -120.64738 1313 ft 4 kts 320°
2026-05-07 03:21 38.14651 -120.64745 1313 ft 4 kts 327°
2026-05-07 03:21 38.14681 -120.64775 1313 ft 2 kts 276°
2026-05-07 03:22 38.14710 -120.64810 1312 ft 10 kts 326°
2026-05-07 03:22 38.14764 -120.64859 1312 ft 5 kts 297°
2026-05-07 03:22 38.14780 -120.64899 1311 ft 14 kts 324°
2026-05-07 03:22 38.14876 -120.64980 1310 ft 19 kts 324°
2026-05-07 03:23 38.14988 -120.65076 1308 ft 12 kts 325°
2026-05-07 03:23 38.15012 -120.65100 1307 ft 0 kts 290°
2026-05-07 03:23 38.15016 -120.65125 1307 ft 5 kts 279°
2026-05-07 03:24 38.15002 -120.65153 1307 ft 3 kts 143°
2026-05-07 03:24 38.14990 -120.65142 1307 ft 0 kts 145°
2026-05-07 03:26 38.14939 -120.65099 1308 ft 30 kts 145°
2026-05-07 03:26 38.14638 -120.64843 1351 ft 65 kts 145°
2026-05-07 03:26 38.14241 -120.64503 1504 ft 73 kts 142°
2026-05-07 03:27 38.13799 -120.64132 1661 ft 79 kts 145°
2026-05-07 03:27 38.13323 -120.63766 1853 ft 81 kts 145°
2026-05-07 03:27 38.12963 -120.63264 2051 ft 80 kts 96°
2026-05-07 03:27 38.13160 -120.62644 2237 ft 80 kts 34°
2026-05-07 03:28 38.13642 -120.62315 2428 ft 80 kts 18°
2026-05-07 03:28 38.14185 -120.62100 2598 ft 83 kts 14°
2026-05-07 03:28 38.14748 -120.61900 2773 ft 84 kts 13°
2026-05-07 03:28 38.15308 -120.61733 2966 ft 82 kts 13°
2026-05-07 03:29 38.15873 -120.61555 3138 ft 84 kts
2026-05-07 03:29 38.16351 -120.61198 3284 ft 88 kts 69°
2026-05-07 03:29 38.16539 -120.60500 3484 ft 84 kts 55°
2026-05-07 03:29 38.16858 -120.59862 3649 ft 84 kts 57°
2026-05-07 03:30 38.17135 -120.59210 3804 ft 85 kts 60°
2026-05-07 03:30 38.17409 -120.58547 3979 ft 84 kts 60°
2026-05-07 03:30 38.17703 -120.57902 4152 ft 83 kts 57°
2026-05-07 03:30 38.18012 -120.57272 4305 ft 84 kts 57°
2026-05-07 03:31 38.18332 -120.56641 4454 ft 86 kts 55°
2026-05-07 03:31 38.18662 -120.56016 4608 ft 86 kts 55°
2026-05-07 03:31 38.18973 -120.55364 4768 ft 85 kts 61°
2026-05-07 03:31 38.19265 -120.54708 4912 ft 86 kts 57°
2026-05-07 03:32 38.19549 -120.54047 5064 ft 85 kts 59°
2026-05-07 03:32 38.19837 -120.53385 5191 ft 87 kts 58°
2026-05-07 03:32 38.20132 -120.52715 5354 ft 85 kts 59°
2026-05-07 03:32 38.20411 -120.52068 5512 ft 84 kts 60°
2026-05-07 03:33 38.20681 -120.51404 5649 ft 85 kts 61°
2026-05-07 03:33 38.20937 -120.50748 5812 ft 82 kts 62°
2026-05-07 03:33 38.21226 -120.50098 5939 ft 84 kts 59°
2026-05-07 03:33 38.21508 -120.49454 6071 ft 84 kts 60°
2026-05-07 03:34 38.21804 -120.48800 6212 ft 83 kts 59°
2026-05-07 03:34 38.22100 -120.48163 6329 ft 85 kts 59°
2026-05-07 03:34 38.22410 -120.47514 6462 ft 85 kts 58°
2026-05-07 03:34 38.22717 -120.46867 6592 ft 85 kts 61°
2026-05-07 03:35 38.23005 -120.46216 6714 ft 85 kts 60°
2026-05-07 03:35 38.23299 -120.45561 6851 ft 85 kts 60°
2026-05-07 03:35 38.23596 -120.44911 6976 ft 86 kts 57°
2026-05-07 03:35 38.23930 -120.44273 7116 ft 85 kts 56°
2026-05-07 03:36 38.24224 -120.43613 7238 ft 86 kts 58°
2026-05-07 03:36 38.24529 -120.42973 7359 ft 86 kts 59°
2026-05-07 03:36 38.24833 -120.42308 7483 ft 85 kts 60°
2026-05-07 03:36 38.25135 -120.41660 7602 ft 86 kts 60°
2026-05-07 03:37 38.25439 -120.41009 7724 ft 85 kts 59°
2026-05-07 03:37 38.25738 -120.40346 7839 ft 87 kts 59°
2026-05-07 03:37 38.26038 -120.39688 7961 ft 86 kts 60°
2026-05-07 03:37 38.26342 -120.39021 8066 ft 87 kts 59°
2026-05-07 03:38 38.26647 -120.38363 8192 ft 86 kts 59°
2026-05-07 03:38 38.26944 -120.37703 8301 ft 86 kts 60°
2026-05-07 03:38 38.27241 -120.37044 8406 ft 86 kts 59°
2026-05-07 03:38 38.27557 -120.36369 8508 ft 88 kts 57°
2026-05-07 03:39 38.27870 -120.35719 8626 ft 87 kts 58°
2026-05-07 03:39 38.28173 -120.35038 8737 ft 87 kts 61°
2026-05-07 03:39 38.28448 -120.34363 8835 ft 88 kts 62°
2026-05-07 03:39 38.28752 -120.33675 8961 ft 86 kts 60°
2026-05-07 03:40 38.29059 -120.33015 9054 ft 88 kts 59°
2026-05-07 03:40 38.29361 -120.32352 9171 ft 86 kts 59°
2026-05-07 03:40 38.29668 -120.31692 9270 ft 87 kts 58°
2026-05-07 03:40 38.29971 -120.31028 9372 ft 87 kts 62°
2026-05-07 03:41 38.30253 -120.30401 9472 ft 86 kts 60°
2026-05-07 03:41 38.30559 -120.29735 9567 ft 87 kts 58°
2026-05-07 03:41 38.30869 -120.29064 9659 ft 88 kts 59°
2026-05-07 03:41 38.31169 -120.28386 9767 ft 88 kts 58°
2026-05-07 03:42 38.31476 -120.27713 9873 ft 87 kts 60°
2026-05-07 03:42 38.31753 -120.27023 9971 ft 87 kts 59°
2026-05-07 03:42 38.32051 -120.26348 10069 ft 87 kts 60°
2026-05-07 03:42 38.32345 -120.25671 10161 ft 88 kts 60°
2026-05-07 03:43 38.32645 -120.24999 10272 ft 86 kts 60°
2026-05-07 03:43 38.32938 -120.24322 10365 ft 87 kts 60°
2026-05-07 03:43 38.33237 -120.23652 10457 ft 88 kts 59°
2026-05-07 03:43 38.33540 -120.22970 10544 ft 89 kts 60°
2026-05-07 03:44 38.33841 -120.22291 10653 ft 87 kts 59°
2026-05-07 03:44 38.34124 -120.21600 10732 ft 89 kts 59°
2026-05-07 03:44 38.34432 -120.20921 10826 ft 89 kts 59°
2026-05-07 03:44 38.34697 -120.20204 10914 ft 89 kts 66°
2026-05-07 03:45 38.34980 -120.19513 10998 ft 90 kts 58°
2026-05-07 03:45 38.35291 -120.18823 11099 ft 88 kts 58°
2026-05-07 03:45 38.35618 -120.18160 11162 ft 92 kts 56°
2026-05-07 03:45 38.35983 -120.17413 11122 ft 105 kts 58°
2026-05-07 03:46 38.36370 -120.16585 11114 ft 111 kts 59°
2026-05-07 03:46 38.36767 -120.15717 11109 ft 114 kts 59°
2026-05-07 03:46 38.37166 -120.14838 11113 ft 115 kts 59°
2026-05-07 03:46 38.37566 -120.13948 11110 ft 117 kts 59°
2026-05-07 03:47 38.37973 -120.13039 11110 ft 117 kts 59°
2026-05-07 03:47 38.38374 -120.12151 11110 ft 117 kts 59°
2026-05-07 03:47 38.38788 -120.11246 11113 ft 117 kts 59°
2026-05-07 03:47 38.39341 -120.10045 11114 ft 117 kts 59°
2026-05-07 03:48 38.39615 -120.09456 11117 ft 117 kts 59°
2026-05-07 03:48 38.40033 -120.08553 11117 ft 117 kts 59°
2026-05-07 03:48 38.40439 -120.07666 11118 ft 117 kts 59°
2026-05-07 03:48 38.40853 -120.06757 11120 ft 117 kts 59°
2026-05-07 03:49 38.41260 -120.05860 11122 ft 117 kts 59°
2026-05-07 03:49 38.41798 -120.04666 11126 ft 117 kts 59°
2026-05-07 03:49 38.42067 -120.04068 11129 ft 116 kts 60°
2026-05-07 03:49 38.42474 -120.03160 11061 ft 119 kts 60°
2026-05-07 03:50 38.42883 -120.02248 11016 ft 117 kts 60°
2026-05-07 03:50 38.43287 -120.01342 11008 ft 114 kts 60°
2026-05-07 03:50 38.43675 -120.00473 11004 ft 113 kts 60°
2026-05-07 03:50 38.44065 -119.99600 11003 ft 111 kts 60°
2026-05-07 03:51 38.44443 -119.98748 11002 ft 111 kts 60°
2026-05-07 03:51 38.44817 -119.97884 11003 ft 110 kts 61°
2026-05-07 03:51 38.45177 -119.97033 11006 ft 110 kts 61°
2026-05-07 03:51 38.45541 -119.96164 11006 ft 110 kts 60°
2026-05-07 03:52 38.45903 -119.95303 11008 ft 110 kts 60°
2026-05-07 03:52 38.46267 -119.94453 11007 ft 110 kts 60°
2026-05-07 03:52 38.46642 -119.93589 11005 ft 110 kts 60°
2026-05-07 03:52 38.47013 -119.92743 11004 ft 110 kts 60°
2026-05-07 03:53 38.47388 -119.91891 10999 ft 110 kts 60°
2026-05-07 03:53 38.47765 -119.91037 10996 ft 110 kts 60°
2026-05-07 03:53 38.48139 -119.90191 10995 ft 109 kts 60°
2026-05-07 03:53 38.48515 -119.89343 11002 ft 110 kts 60°
2026-05-07 03:54 38.48892 -119.88492 11001 ft 110 kts 60°
2026-05-07 03:54 38.49265 -119.87647 11000 ft 109 kts 60°
2026-05-07 03:54 38.49640 -119.86800 10998 ft 109 kts 60°
2026-05-07 03:54 38.50013 -119.85955 10995 ft 109 kts 60°
2026-05-07 03:55 38.50390 -119.85104 10993 ft 109 kts 59°
2026-05-07 03:55 38.50763 -119.84259 11007 ft 110 kts 60°
2026-05-07 03:55 38.51138 -119.83414 10994 ft 110 kts 59°
2026-05-07 03:55 38.51515 -119.82558 10995 ft 111 kts 60°
2026-05-07 03:56 38.51895 -119.81701 10999 ft 111 kts 59°
2026-05-07 03:56 38.52275 -119.80841 10993 ft 111 kts 60°
2026-05-07 03:56 38.52710 -119.80027 10983 ft 109 kts 44°
2026-05-07 03:56 38.53235 -119.79343 10981 ft 107 kts 46°
2026-05-07 03:57 38.53763 -119.78671 11007 ft 108 kts 45°
2026-05-07 03:57 38.54303 -119.77992 11003 ft 109 kts 45°
2026-05-07 03:57 38.54844 -119.77306 10999 ft 109 kts 49°
2026-05-07 03:57 38.55126 -119.76429 10973 ft 106 kts 70°
2026-05-07 03:58 38.55397 -119.75555 11014 ft 105 kts 67°
2026-05-07 03:58 38.55670 -119.74669 11016 ft 108 kts 67°
2026-05-07 03:58 38.55944 -119.73772 11011 ft 110 kts 67°
2026-05-07 03:58 38.56381 -119.72606 11004 ft 110 kts 43°
2026-05-07 03:59 38.56583 -119.72402 11008 ft 110 kts 38°
2026-05-07 03:59 38.57324 -119.71503 11005 ft 109 kts 46°
2026-05-07 03:59 38.57838 -119.70792 11006 ft 109 kts 48°
2026-05-07 03:59 38.58338 -119.70055 11004 ft 109 kts 50°
2026-05-07 04:00 38.58825 -119.69308 11001 ft 109 kts 50°
2026-05-07 04:00 38.59306 -119.68559 11000 ft 109 kts 51°
2026-05-07 04:00 38.59786 -119.67802 10999 ft 109 kts 51°
2026-05-07 04:00 38.60263 -119.67046 10998 ft 109 kts 51°
2026-05-07 04:01 38.60739 -119.66289 10997 ft 109 kts 51°
2026-05-07 04:01 38.61204 -119.65531 10970 ft 104 kts 53°
2026-05-07 04:01 38.61614 -119.64780 10791 ft 102 kts 58°
2026-05-07 04:01 38.61994 -119.64036 10590 ft 97 kts 56°
2026-05-07 04:02 38.62384 -119.63300 10316 ft 100 kts 57°
2026-05-07 04:02 38.62888 -119.62315 9896 ft 101 kts 58°
2026-05-07 04:02 38.63136 -119.61818 9685 ft 99 kts 60°
2026-05-07 04:02 38.63533 -119.61105 9419 ft 99 kts 55°
2026-05-07 04:03 38.64048 -119.60127 9047 ft 100 kts 58°
2026-05-07 04:03 38.64302 -119.59648 8866 ft 98 kts 56°
2026-05-07 04:03 38.64721 -119.58961 8573 ft 99 kts 52°
2026-05-07 04:03 38.65154 -119.58276 8271 ft 99 kts 53°
2026-05-07 04:04 38.65572 -119.57600 7988 ft 96 kts 51°
2026-05-07 04:04 38.66013 -119.56940 7655 ft 100 kts 52°
2026-05-07 04:04 38.66432 -119.56269 7406 ft 95 kts 59°
2026-05-07 04:04 38.66595 -119.55422 7018 ft 103 kts 84°
2026-05-07 04:05 38.66856 -119.54584 6590 ft 110 kts 37°
2026-05-07 04:05 38.67635 -119.54411 6089 ft 119 kts
2026-05-07 04:05 38.68640 -119.54277 5701 ft 108 kts 26°
2026-05-07 04:05 38.68991 -119.53534 5663 ft 99 kts 74°
2026-05-07 04:06 38.69119 -119.52978 5657 ft 95 kts 71°
2026-05-07 04:06 38.69317 -119.52182 5679 ft 91 kts 71°
2026-05-07 04:06 38.69485 -119.51503 5940 ft 69 kts 69°
2026-05-07 04:06 38.69651 -119.50888 6018 ft 76 kts 67°
2026-05-07 04:07 38.69863 -119.50209 6043 ft 87 kts 67°
2026-05-07 04:07 38.70114 -119.49499 6133 ft 90 kts 63°
2026-05-07 04:07 38.70432 -119.48772 6231 ft 91 kts 58°
2026-05-07 04:07 38.70758 -119.48122 6412 ft 82 kts 56°
2026-05-07 04:08 38.71098 -119.47534 6509 ft 85 kts 52°
2026-05-07 04:08 38.71486 -119.46918 6520 ft 90 kts 53°
2026-05-07 04:08 38.71860 -119.46313 6326 ft 84 kts 54°
2026-05-07 04:08 38.72427 -119.45617 6024 ft 83 kts 33°
2026-05-07 04:09 38.72752 -119.45420 5948 ft 77 kts 24°
2026-05-07 04:09 38.73302 -119.45298 5752 ft 80 kts
2026-05-07 04:09 38.73853 -119.45419 5612 ft 84 kts 337°
2026-05-07 04:09 38.74107 -119.46246 5431 ft 87 kts 235°
2026-05-07 04:10 38.73786 -119.46546 5267 ft 89 kts 191°
2026-05-07 04:10 38.73172 -119.46598 5067 ft 86 kts 176°
2026-05-07 04:10 38.72648 -119.46599 5036 ft 58 kts 180°
2026-05-07 04:10 38.72505 -119.46599 5032 ft 3 kts 116°
2026-05-07 04:11 38.72507 -119.46581 5032 ft 1 kts 40°
2026-05-07 04:11 38.72564 -119.46600 5033 ft 21 kts 359°
2026-05-07 04:11 38.72693 -119.46585 5037 ft 10 kts 28°
2026-05-07 04:11 38.72741 -119.46571 5037 ft 0 kts
2026-05-07 04:12 38.72742 -119.46577 5038 ft 0 kts 269°